Location: Arbon
(43.0005°N, 0.7472°E)
Time: 22:27:35
(UTC+00:00)

Explorer 7 - Pass Details

Date: 03 December 2020
Orbit: 484 x 678 km, 50.3° (Epoch: 25 January)

Event Time Altitude Azimuth Distance (km) Brightness Sun altitude
Rises 22:15:17 0° 192° (SSW) 3,003 - -61.8°
Reaches altitude 10° 22:18:20 10° 173° (S) 2,078 - -62.2°
Maximum altitude 22:21:29 17° 132° (SE) 1,616 - -62.7°
Drops below altitude 10° 22:24:34 10° 91° (E) 2,031 - -63.1°
Sets 22:27:29 0° 71° (ENE) 2,907 - -63.5°
